Shadowrun.fr Shadowrun en France et en français

Forums shadowrun.fr

Shadowrun en français

Vous n’êtes pas identifié.

Annonce

L’inscription de nouveaux utilisateurs sur le forum est temporairement fermée pour cause de spam ; mais n‘hésitez pas à nous contacter pour que nous vous enregistrions manuellement !

Shadowrun 4

Discussion Réponses Vues Dernier message
3 754 05/01/2009 23:27:21 par Skarn Ka
11 2040 04/01/2009 19:03:53 par Namergon
6 1059 31/12/2008 11:50:37 par Namergon
17 1690 30/12/2008 19:35:42 par akazahn
Invisibilité par Zen  [ 1 2 ]
29 4900 30/12/2008 14:52:06 par Namergon
9 1018 30/12/2008 13:31:35 par Namergon
5 992 26/12/2008 20:17:41 par raoul
4 914 21/12/2008 22:27:30 par Ambre
1 662 19/12/2008 10:54:11 par Murdoch
Supplément Allemand par Shaken
6 1525 10/12/2008 10:35:23 par Shaken
6 1661 09/12/2008 23:00:59 par akazahn
jacpoint MJ ONLY par lotus
5 1395 05/12/2008 15:17:20 par Daegann
2 1069 30/11/2008 11:43:59 par phenice
8 2131 27/11/2008 19:37:08 par darkwind
10 2285 26/11/2008 11:41:14 par Raven
8 4026 24/11/2008 21:40:46 par raoul
La Campagne Electorale par Zero Cool
16 6298 21/11/2008 12:22:15 par Gaynor
25 4554 20/11/2008 16:21:40 par Gaynor
12 1751 20/11/2008 14:52:21 par Murdoch
1 945 19/11/2008 20:06:56 par raoul
19 5929 18/11/2008 22:10:40 par Namergon
ligue des caraïbes par akazahn
4 1488 16/11/2008 23:58:42 par Cheschire Cat
Accès Admin VS CI par Mist-e-Fire
11 3496 16/11/2008 11:05:25 par samantha
3 1042 15/11/2008 18:08:39 par Cheschire Cat
Réimpression par Shaken
7 1555 06/11/2008 12:20:48 par Shaken
2 978 06/11/2008 00:06:50 par Greybird
4 1264 03/11/2008 15:13:47 par dragrubis
Le cash par Zaranos
19 5947 31/10/2008 11:02:02 par Zaranos
2 1460 30/10/2008 20:14:30 par Papa
Mage / Chaman par Baal
5 1649 29/10/2008 13:43:44 par Murdoch
Ludik Bazar — Destockage de jeux de simulation

Pied de page des forums

Propulsé par PunBB
par Rickard Andersson